Weather History for Greenville Downtown, SC

Change the Weather History Date:

Monday, March 25, 2013

  Actual Average Record
Temperature  
Mean Temperature 40 °F -  
Max Temperature 46 °F 64 °F 87 °F (2007)
Min Temperature 34 °F 44 °F 28 °F (2008)
Degree Days  
Heating Degree Days 25    
Moisture  
Dew Point 26 °F    
Average Humidity 58    
Maximum Humidity 92    
Minimum Humidity 35    
Precipitation  
Precipitation 0.01 in - - ()
Sea Level Pressure  
Sea Level Pressure 29.72 in    
Wind  
Wind Speed 11 mph (WSW)    
Max Wind Speed 21 mph    
Max Gust Speed 32 mph    
Visibility 10 miles    
Events Rain    
Averages and records for this station are not official NWS values.
T = Trace of Precipitation, MM = Missing Value Source: NWS Daily Summary

Daily Weather History Graph

Daily Weather History Graph

Search for Another Location

Airport:

Trip Planner

Search our weather history database for the weather conditions in past years. The results will help you decide how hot, cold, wet, or windy it might be!

Date:

Astronomy

Mar. 25, 2013 Rise Set
Actual Time 7:25 AM EDT 7:45 PM EDT
Civil Twilight 7:00 AM EDT 8:10 PM EDT
Nautical Twilight 6:30 AM EDT 8:40 PM EDT
Astronomical Twilight 6:00 AM EDT 9:10 PM EDT
Moon 6:17 PM EDT (3/25) 6:05 AM EDT (3/25)
Length of Visible Light 13h 10m
Length of Day
12h 19m
Waxing Gibbous, 96% of the Moon is Illuminated
Mar 25
Waxing Gibbous
Mar 27
Full
Apr 3
Last Quarter
Apr 10
New
Apr 18
First Quarter

Hourly Weather History & Observations

Time (EDT) Temp. Windchill Dew Point Humidity Pressure Visibility Wind Dir Wind Speed Gust Speed Precip Events Conditions
12:05 AM 42.8 °F 38.6 °F 39.2 °F 87% 29.58 in 9.0 mi South 6.9 mph - N/A   Overcast
12:53 AM 42.1 °F 39.2 °F 39.9 °F 92% 29.58 in 7.0 mi South 4.6 mph - N/A   Overcast
1:38 AM 42.8 °F - 39.2 °F 87% 29.57 in 7.0 mi Calm Calm - 0.00 in Rain Light Rain
1:53 AM 43.0 °F 36.8 °F 39.9 °F 89% 29.58 in 8.0 mi WSW 11.5 mph 16.1 mph 0.01 in Rain Light Rain
2:00 AM 42.8 °F 37.0 °F 39.2 °F 87% 29.57 in 10.0 mi WSW 10.4 mph 19.6 mph 0.00 in   Overcast
2:53 AM 39.9 °F 31.8 °F 33.1 °F 77% 29.59 in 10.0 mi West 15.0 mph 19.6 mph 0.00 in   Clear
3:53 AM 39.0 °F 31.8 °F 30.0 °F 70% 29.59 in 10.0 mi West 11.5 mph - N/A   Clear
4:53 AM 39.0 °F 31.8 °F 30.9 °F 73% 29.60 in 10.0 mi WSW 11.5 mph - N/A   Partly Cloudy
5:53 AM 39.9 °F 31.8 °F 30.0 °F 68% 29.61 in 10.0 mi WSW 15.0 mph 21.9 mph N/A   Overcast
6:53 AM 37.9 °F 28.9 °F 26.1 °F 62% 29.65 in 10.0 mi West 16.1 mph 21.9 mph N/A   Overcast
7:53 AM 37.9 °F 29.2 °F 23.0 °F 55% 29.66 in 10.0 mi West 15.0 mph 21.9 mph N/A   Overcast
8:53 AM 37.9 °F 28.9 °F 23.0 °F 55% 29.68 in 10.0 mi West 16.1 mph 25.3 mph N/A   Partly Cloudy
9:53 AM 41.0 °F 33.5 °F 24.1 °F 51% 29.70 in 10.0 mi West 13.8 mph 24.2 mph N/A   Partly Cloudy
10:53 AM 43.0 °F 35.4 °F 19.9 °F 40% 29.72 in 10.0 mi West 16.1 mph 26.5 mph N/A   Mostly Cloudy
11:53 AM 42.1 °F 33.6 °F 18.0 °F 38% 29.75 in 10.0 mi West 18.4 mph 28.8 mph N/A   Overcast
12:53 PM 45.0 °F 37.9 °F 19.9 °F 37% 29.75 in 10.0 mi West 16.1 mph 32.2 mph N/A   Mostly Cloudy
1:53 PM 44.1 °F 37.1 °F 19.0 °F 37% 29.75 in 10.0 mi West 15.0 mph 27.6 mph N/A   Overcast
2:53 PM 43.0 °F 36.0 °F 21.0 °F 42% 29.75 in 10.0 mi West 13.8 mph 28.8 mph N/A   Mostly Cloudy
3:53 PM 43.0 °F 35.4 °F 21.0 °F 42% 29.76 in 10.0 mi West 16.1 mph 24.2 mph N/A   Overcast
4:53 PM 44.1 °F 37.7 °F 19.9 °F 38% 29.78 in 10.0 mi West 12.7 mph 21.9 mph N/A   Overcast
5:53 PM 43.0 °F 34.2 °F 19.0 °F 38% 29.80 in 10.0 mi West 20.7 mph 29.9 mph N/A   Overcast
6:53 PM 42.1 °F 33.9 °F 16.0 °F 35% 29.83 in 10.0 mi West 17.3 mph 29.9 mph N/A   Mostly Cloudy
7:53 PM 37.9 °F 28.9 °F 21.0 °F 51% 29.87 in 10.0 mi West 16.1 mph 25.3 mph N/A   Mostly Cloudy
8:53 PM 37.0 °F 28.5 °F 21.9 °F 54% 29.90 in 10.0 mi West 13.8 mph - N/A   Clear
9:53 PM 36.0 °F 27.1 °F 21.0 °F 55% 29.93 in 10.0 mi West 13.8 mph 21.9 mph N/A   Mostly Cloudy
10:53 PM 35.1 °F 27.9 °F 21.0 °F 57% 29.95 in 10.0 mi WSW 9.2 mph - N/A   Overcast
11:53 PM 34.0 °F 26.0 °F 21.0 °F 59% 29.96 in 10.0 mi WSW 10.4 mph - N/A   Scattered Clouds